SCP
0 0 0 0 0 0 0 0 0 0 0 0 0 0 0 0 0 0 0 0 0 0
0 0 0 0 0 0 0 0 0 0 0 0 0 0 0 0 0 0 0 0 0 0
0 0 0 0 0 0 0 0 0 0 0 0 0 0 0 0 0 0 0 0 0 0
0 0 0 0 0 0 0 0 0 0 0 0 0 0 0 0 0 0 0 0 0 0
0 0 0 0 0 0 0 0 0 0 0 0 0 0 0 0 0 0 0 0 0 0
0 0 0 0 0 0 0 0 0 0 0 0 0 0 0 0 0 0 0 0 0 0
0 0 0 0 0 0 0 0 0 0 0 0 0 0 0 0 0 0 0 0 0 0
0 0 0 0 0 0 0 0 0 0 0 0 0 0 0 0 0 0 0 0 0 0
0 0 0 0 0 0 0 0 0 0 0 0 0 0 0 0 0 0 0 0 0 0
0 0 0 0 0 0 0 0 0 0 0 0 0 0 0 0 0 0 0 0 0 -0
0 0 0 0 0 0 0 0 0 0 0 0 0 0 0 0 0 0 0 0 -0 -0
0 0 0 0 0 0 0 0 0 0 0 0 0 0 0 0 0 0 0 0 -0 0
0 0 0 0 0 0 0 0 0 0 0 0 0 0 0 0 0 0 0 0 -0 -0
0 0 0 0 0 0 0 0 0 0 0 0 0 0 0 0 0 0 0 -0 -0 0
Wind_Speed_500mb
58 63 64 64 65 67 68 69 66 62 58 55 53 53 54 56 56 53 55 50 41 44
58 62 63 64 65 68 68 69 66 64 60 56 55 55 56 58 60 57 52 44 39 44
62 63 65 67 70 70 71 69 68 63 58 57 56 57 58 62 62 57 47 42 45 45
63 66 68 70 71 72 72 70 67 62 58 57 59 57 59 61 61 54 44 40 49 50
63 68 71 73 72 71 71 67 64 60 59 59 59 58 59 59 57 45 44 50 54 54
65 69 71 72 73 71 70 66 62 59 60 60 59 59 56 51 48 47 56 57 58 59
65 70 73 73 71 69 67 65 63 60 59 58 56 53 48 51 54 63 60 59 58 56
65 68 69 68 67 66 64 62 61 60 56 52 51 49 50 52 59 55 53 54 53 52
62 64 65 66 66 66 63 60 58 55 53 53 49 48 46 50 52 49 54 53 59 51
62 65 64 65 65 62 60 57 54 52 51 49 47 44 47 47 45 54 58 59 52 62
62 63 62 64 63 59 57 55 53 49 47 47 43 45 45 44 53 54 55 61 54 53
61 60 61 61 60 58 58 53 49 49 47 45 43 45 44 48 51 60 54 33 62 67
57 58 58 57 57 55 52 50 49 47 43 45 47 44 44 47 56 54 40 67 68 58
54 55 54 55 54 53 52 50 50 50 50 54 55 43 43 46 51 57 66 66 60 53
Wind_Direction_500mb
327 326 327 328 329 330 330 329 327 323 317 312 313 314 316 318 321 320 314 310 303 305
325 327 329 330 332 332 330 327 323 319 315 310 312 314 316 316 319 318 316 310 306 309
330 332 333 334 334 332 328 326 323 321 316 311 312 315 315 316 317 317 315 311 310 305
332 334 335 334 333 331 328 327 325 324 319 315 315 316 314 314 316 319 315 313 320 318
336 336 335 334 333 331 329 329 328 325 320 318 317 318 316 316 319 326 325 326 324 322
338 336 335 334 334 332 331 331 329 325 322 322 321 320 320 319 333 331 328 324 323 317
339 337 336 335 334 333 333 332 330 329 326 327 325 323 325 335 332 330 327 323 318 314
339 337 336 336 336 336 336 335 333 332 331 332 331 330 331 328 327 323 323 324 321 315
338 338 339 339 341 340 340 338 337 337 337 341 338 329 329 326 327 328 328 326 326 324
341 343 343 342 343 343 343 341 341 343 343 342 343 334 330 332 328 331 329 331 326 327
345 346 344 344 346 346 347 348 348 348 349 347 349 334 336 334 334 332 335 333 337 331
348 348 347 347 349 351 353 353 353 355 351 351 355 343 341 338 335 338 328 342 336 335
350 349 350 349 353 355 354 354 355 358 357 358 359 353 343 341 341 331 340 335 334 335
351 352 353 354 355 354 355 355 354 356 0 3 4 359 346 344 342 342 334 333 339 345
Wind_Speed_850mb
58 63 64 64 65 67 68 69 66 62 58 55 53 53 54 56 56 53 55 50 41 44
58 62 63 64 65 68 68 69 66 64 60 56 55 55 56 58 60 57 52 44 39 44
62 63 65 67 70 70 71 69 68 63 58 57 56 57 58 62 62 57 47 42 45 45
63 66 68 70 71 72 72 70 67 62 58 57 59 57 59 61 61 54 44 40 49 50
63 68 71 73 72 71 71 67 64 60 59 59 59 58 59 59 57 45 44 50 54 54
65 69 71 72 73 71 70 66 62 59 60 60 59 59 56 51 48 47 56 57 58 59
65 70 73 73 71 69 67 65 63 60 59 58 56 53 48 51 54 63 60 59 58 56
65 68 69 68 67 66 64 62 61 60 56 52 51 49 50 52 59 55 53 54 53 52
62 64 65 66 66 66 63 60 58 55 53 53 49 48 46 50 52 49 54 53 59 51
62 65 64 65 65 62 60 57 54 52 51 49 47 44 47 47 45 54 58 59 52 62
62 63 62 64 63 59 57 55 53 49 47 47 43 45 45 44 53 54 55 61 54 53
61 60 61 61 60 58 58 53 49 49 47 45 43 45 44 48 51 60 54 33 62 67
57 58 58 57 57 55 52 50 49 47 43 45 47 44 44 47 56 54 40 67 68 58
54 55 54 55 54 53 52 50 50 50 50 54 55 43 43 46 51 57 66 66 60 53
Wind_Direction_850mb
327 326 327 328 329 330 330 329 327 323 317 312 313 314 316 318 321 320 314 310 303 305
325 327 329 330 332 332 330 327 323 319 315 310 312 314 316 316 319 318 316 310 306 309
330 332 333 334 334 332 328 326 323 321 316 311 312 315 315 316 317 317 315 311 310 305
332 334 335 334 333 331 328 327 325 324 319 315 315 316 314 314 316 319 315 313 320 318
336 336 335 334 333 331 329 329 328 325 320 318 317 318 316 316 319 326 325 326 324 322
338 336 335 334 334 332 331 331 329 325 322 322 321 320 320 319 333 331 328 324 323 317
339 337 336 335 334 333 333 332 330 329 326 327 325 323 325 335 332 330 327 323 318 314
339 337 336 336 336 336 336 335 333 332 331 332 331 330 331 328 327 323 323 324 321 315
338 338 339 339 341 340 340 338 337 337 337 341 338 329 329 326 327 328 328 326 326 324
341 343 343 342 343 343 343 341 341 343 343 342 343 334 330 332 328 331 329 331 326 327
345 346 344 344 346 346 347 348 348 348 349 347 349 334 336 334 334 332 335 333 337 331
348 348 347 347 349 351 353 353 353 355 351 351 355 343 341 338 335 338 328 342 336 335
350 349 350 349 353 355 354 354 355 358 357 358 359 353 343 341 341 331 340 335 334 335
351 352 353 354 355 354 355 355 354 356 0 3 4 359 346 344 342 342 334 333 339 345